Dades meteomassalio
Diari Summary for Juny 22, 2017 Units:  Metric    English   Both
« Previous Day
Next Day »
Diari Semanal Mensual Anual Personalitzat
  Maxima: Minima: Mijana:
Temperatura: -17.8 °C -7.6 °C -1.7 °C
Rosada: -17.8 °C -10.9 °C -9.9 °C
Humitat: Humidity % 22 % 44 %
Velocitat del vent: 0 km/h 0 km/h 8.2 km/h
Racha vent: 0 km/h - -
Vent:- - ESE
Pressio: 0 hPa 34327.3 hPa -
Pluja: 0 mm    
Historical Graphs
 
 
Tabular Data for Juny 22, 2017
Time Temperature Dew Point Pressure Wind Wind Speed Wind Gust Humidity Rainfall Rate (Hourly) solar Conditions
-17.8 °C -17.8 °C 0 hPa Calm     Humidity % 0 mm SolarRadiationWatts/m^2 W/m2 Conditions
00:03 -3.1 °C -9.6 °C 34361.1 hPa Calm     49 % 0 mm 0.0 W/m2 CLR
00:08 -3.3 °C -9.7 °C 34361.1 hPa Calm     49 % 0 mm 0.0 W/m2 CLR
00:13 -3.4 °C -9.7 °C 34361.1 hPa Calm     50 % 0 mm 0.0 W/m2 CLR
00:18 -3.4 °C -9.8 °C 34361.1 hPa Calm     49 % 0 mm 0.0 W/m2 CLR
00:23 -3.4 °C -9.7 °C 34361.1 hPa Calm     50 % 0 mm 0.0 W/m2 CLR
00:24 -3.4 °C -9.7 °C 34361.1 hPa Calm     50 % 0 mm 0.0 W/m2 CLR
00:29 -3.5 °C -9.6 °C 34371.3 hPa Calm     51 % 0 mm 0.0 W/m2 CLR
00:34 -3.6 °C -9.6 °C 34371.3 hPa Calm     51 % 0 mm 0.0 W/m2 CLR
00:39 -3.7 °C -9.8 °C 34371.3 hPa Calm     51 % 0 mm 0.0 W/m2 CLR
00:44 -3.8 °C -9.7 °C 34371.3 hPa Calm     52 % 0 mm 0.0 W/m2 CLR
00:49 -3.9 °C -9.8 °C 34371.3 hPa Calm     52 % 0 mm 0.0 W/m2 CLR
00:54 -3.9 °C -9.8 °C 34371.3 hPa Calm     52 % 0 mm 0.0 W/m2 CLR
00:59 -4 °C -9.8 °C 34371.3 hPa Calm     52 % 0 mm 0.0 W/m2 CLR
01:04 -4.1 °C -9.7 °C 34371.3 hPa Calm     53 % 0 mm 0.0 W/m2 CLR
01:09 -4.1 °C -9.8 °C 34371.3 hPa Calm     53 % 0 mm 0.0 W/m2 CLR
01:14 -4.3 °C -9.8 °C 34371.3 hPa Calm     54 % 0 mm 0.0 W/m2 CLR
01:19 -4.3 °C -9.7 °C 34371.3 hPa Calm     55 % 0 mm 0.0 W/m2 CLR
01:24 -4.3 °C -9.7 °C 34371.3 hPa Calm     55 % 0 mm 0.0 W/m2 CLR
01:29 -4.4 °C -9.8 °C 34371.3 hPa Calm     55 % 0 mm 0.0 W/m2 CLR
01:34 -4.6 °C -9.7 °C 34371.3 hPa Calm     56 % 0 mm 0.0 W/m2 CLR
01:39 -4.7 °C -9.7 °C 34371.3 hPa Calm     57 % 0 mm 0.0 W/m2 CLR
01:44 -4.8 °C -9.6 °C 34371.3 hPa Calm     58 % 0 mm 0.0 W/m2 CLR
01:49 -4.9 °C -9.7 °C 34371.3 hPa Calm     58 % 0 mm 0.0 W/m2 CLR
01:54 -4.9 °C -9.7 °C 34371.3 hPa Calm     59 % 0 mm 0.0 W/m2 CLR
01:59 -5.1 °C -9.8 °C 34371.3 hPa Calm     59 % 0 mm 0.0 W/m2 CLR
02:04 -5.2 °C -9.7 °C 34371.3 hPa Calm     60 % 0 mm 0.0 W/m2 CLR
02:09 -5.2 °C -9.6 °C 34371.3 hPa Calm     61 % 0 mm 0.0 W/m2 CLR
02:14 -5.1 °C -9.7 °C 34371.3 hPa Calm     60 % 0 mm 0.0 W/m2 CLR
02:19 -5.2 °C -9.7 °C 34371.3 hPa Calm     60 % 0 mm 0.0 W/m2 CLR
02:24 -5.2 °C -9.8 °C 34371.3 hPa Calm     60 % 0 mm 0.0 W/m2 CLR
02:29 -5.3 °C -9.9 °C 34371.3 hPa Calm     60 % 0 mm 0.0 W/m2 CLR
02:34 -5.4 °C -9.8 °C 34371.3 hPa Calm     61 % 0 mm 0.0 W/m2 CLR
02:39 -5.6 °C -9.7 °C 34371.3 hPa Calm     63 % 0 mm 0.0 W/m2 CLR
02:44 -5.7 °C -9.6 °C 34371.3 hPa Calm     64 % 0 mm 0.0 W/m2 CLR
02:49 -5.7 °C -9.7 °C 34371.3 hPa Calm     64 % 0 mm 0.0 W/m2 CLR
02:54 -5.7 °C -9.8 °C 34371.3 hPa Calm     63 % 0 mm 0.0 W/m2 CLR
02:59 -5.8 °C -9.9 °C 34371.3 hPa Calm     63 % 0 mm 0.0 W/m2 CLR
03:04 -5.9 °C -9.9 °C 34371.3 hPa Calm     63 % 0 mm 0.0 W/m2 CLR
03:09 -5.9 °C -9.8 °C 34371.3 hPa Calm     65 % 0 mm 0.0 W/m2 CLR
03:14 -6 °C -9.8 °C 34371.3 hPa Calm     65 % 0 mm 0.0 W/m2 CLR
03:19 -6.1 °C -9.9 °C 34371.3 hPa Calm     65 % 0 mm 0.0 W/m2 CLR
03:24 -6.2 °C -9.9 °C 34361.1 hPa Calm     65 % 0 mm 0.0 W/m2 CLR
03:30 -6.2 °C -9.9 °C 34361.1 hPa Calm     65 % 0 mm 0.0 W/m2 CLR
03:35 -6.3 °C -9.9 °C 34361.1 hPa Calm     66 % 0 mm 0.0 W/m2 CLR
03:40 -6.3 °C -9.8 °C 34361.1 hPa Calm     67 % 0 mm 0.0 W/m2 CLR
03:45 -6.2 °C -9.8 °C 34361.1 hPa Calm     67 % 0 mm 0.0 W/m2 CLR
03:50 -6.2 °C -9.8 °C 34371.3 hPa Calm     67 % 0 mm 0.0 W/m2 CLR
03:55 -6.3 °C -9.9 °C 34371.3 hPa Calm     66 % 0 mm 0.0 W/m2 CLR
04:00 -6.4 °C -10.1 °C 34371.3 hPa Calm     66 % 0 mm 0.0 W/m2 CLR
04:05 -6.5 °C -10 °C 34371.3 hPa Calm     67 % 0 mm 0.0 W/m2 CLR
04:15 -6.6 °C -10 °C 34361.1 hPa Calm     68 % 0 mm 0.0 W/m2 CLR
04:20 -6.7 °C -10.1 °C 34361.1 hPa Calm     68 % 0 mm 0.0 W/m2 CLR
04:25 -6.7 °C -10.1 °C 34371.3 hPa Calm     68 % 0 mm 0.0 W/m2 CLR
04:30 -6.7 °C -9.9 °C 34371.3 hPa Calm     69 % 0 mm 0.0 W/m2 CLR
04:35 -6.8 °C -10 °C 34361.1 hPa Calm     69 % 0 mm 0.0 W/m2 CLR
04:40 -6.8 °C -10 °C 34361.1 hPa Calm     69 % 0 mm 0.0 W/m2 CLR
04:45 -6.8 °C -10 °C 34371.3 hPa Calm     69 % 0 mm 0.0 W/m2 CLR
04:50 -6.8 °C -10.1 °C 34371.3 hPa Calm     69 % 0 mm 0.0 W/m2 CLR
04:55 -6.9 °C -10.1 °C 34371.3 hPa Calm     69 % 0 mm 0.0 W/m2 CLR
05:00 -6.9 °C -10.1 °C 34371.3 hPa Calm     70 % 0 mm 0.0 W/m2 CLR
05:02 -6.9 °C -10.1 °C 34371.3 hPa Calm     70 % 0 mm 0.0 W/m2 CLR
05:07 -7 °C -10.1 °C 34371.3 hPa Calm     70 % 0 mm 0.0 W/m2 CLR
05:12 -7.1 °C -10.2 °C 34371.3 hPa Calm     70 % 0 mm 0.0 W/m2 CLR
05:17 -7.1 °C -10.2 °C 34371.3 hPa Calm     70 % 0 mm 0.0 W/m2 CLR
05:22 -7.2 °C -10.3 °C 34371.3 hPa Calm     70 % 0 mm 0.0 W/m2 CLR
05:27 -7.2 °C -10.2 °C 34371.3 hPa Calm     71 % 0 mm 0.0 W/m2 CLR
05:32 -7.3 °C -10.3 °C 34371.3 hPa Calm     71 % 0 mm 0.0 W/m2 CLR
05:37 -7.3 °C -10.2 °C 34384.8 hPa Calm     72 % 0 mm 0.0 W/m2 CLR
05:42 -7.3 °C -10.3 °C 34384.8 hPa Calm     71 % 0 mm 0.0 W/m2 CLR
05:47 -7.3 °C -10.2 °C 34384.8 hPa Calm     72 % 0 mm 0.0 W/m2 CLR
05:52 -7.4 °C -10.3 °C 34384.8 hPa Calm     72 % 0 mm 0.0 W/m2 CLR
05:57 -7.4 °C -10.3 °C 34384.8 hPa Calm     72 % 0 mm 0.0 W/m2 CLR
06:02 -7.4 °C -10.2 °C 34384.8 hPa Calm     73 % 0 mm 0.0 W/m2 CLR
06:07 -7.5 °C -10.2 °C 34384.8 hPa Calm     73 % 0 mm 0.0 W/m2 CLR
06:12 -7.5 °C -10.2 °C 34384.8 hPa Calm     73 % 0 mm 0.0 W/m2 CLR
06:17 -7.6 °C -10.3 °C 34384.8 hPa Calm     73 % 0 mm 0.0 W/m2 CLR
06:22 -7.6 °C -10.3 °C 34395 hPa Calm     73 % 0 mm 0.0 W/m2 OVC
06:27 -7.5 °C -10.2 °C 34384.8 hPa Calm     73 % 0 mm 0.0 W/m2 OVC
06:32 -7.4 °C -10.3 °C 34384.8 hPa Calm     72 % 0 mm 7.0 W/m2 OVC
06:37 -7.4 °C -10.3 °C 34384.8 hPa Calm     72 % 0 mm 9.0 W/m2 BKN
06:42 -7.4 °C -10.4 °C 34384.8 hPa Calm     71 % 0 mm 12.0 W/m2 BKN
06:47 -7.4 °C -10.3 °C 34384.8 hPa Calm     72 % 0 mm 18.0 W/m2 BKN
06:52 -7.4 °C -10.3 °C 34395 hPa Calm     72 % 0 mm 23.0 W/m2 BKN
06:57 -7.5 °C -10.4 °C 34395 hPa Calm     72 % 0 mm 26.0 W/m2 BKN
07:02 -7.5 °C -10.4 °C 34395 hPa Calm     72 % 0 mm 32.0 W/m2 BKN
07:07 -7.4 °C -10.3 °C 34395 hPa Calm     72 % 0 mm 39.0 W/m2 BKN
07:12 -7.4 °C -10.3 °C 34395 hPa Calm     72 % 0 mm 47.0 W/m2 SCT
07:17 -7.3 °C -10.3 °C 34395 hPa Calm     71 % 0 mm 56.0 W/m2 SCT
07:22 -7.2 °C -10.2 °C 34395 hPa Calm     71 % 0 mm 65.0 W/m2 SCT
07:27 -7.1 °C -10.2 °C 34395 hPa Calm     70 % 0 mm 74.0 W/m2 FEW
07:32 -7 °C -10.1 °C 34395 hPa Calm     70 % 0 mm 76.0 W/m2 FEW
07:37 -6.9 °C -10.1 °C 34395 hPa Calm     69 % 0 mm 98.0 W/m2 FEW
07:42 -6.8 °C -10 °C 34395 hPa Calm     69 % 0 mm 109.0 W/m2 CLR
07:47 -6.6 °C -10 °C 34395 hPa Calm     68 % 0 mm 100.0 W/m2 CLR
07:52 -6.4 °C -9.9 °C 34405.1 hPa Calm     67 % 0 mm 102.0 W/m2 CLR
07:57 -6.3 °C -9.9 °C 34395 hPa Calm     66 % 0 mm 123.0 W/m2 CLR
08:02 -6.1 °C -9.9 °C 34405.1 hPa Calm     65 % 0 mm 132.0 W/m2 CLR
08:07 -5.9 °C -9.9 °C 34405.1 hPa Calm     63 % 0 mm 183.0 W/m2 CLR
08:12 -5.7 °C -9.8 °C 34405.1 hPa Calm     63 % 0 mm 200.0 W/m2 CLR
08:17 -5.4 °C -9.6 °C 34405.1 hPa Calm     63 % 0 mm 214.0 W/m2 CLR
08:22 -5.2 °C -9.3 °C 34405.1 hPa Calm     63 % 0 mm 229.0 W/m2 CLR
08:27 -5 °C -9.3 °C 34405.1 hPa Calm     62 % 0 mm 241.0 W/m2 CLR
08:32 -4.9 °C -9.3 °C 34405.1 hPa Calm     61 % 0 mm 255.0 W/m2 CLR
08:37 -4.7 °C -9.4 °C 34405.1 hPa Calm     59 % 0 mm 269.0 W/m2 CLR
08:42 -4.6 °C -9.4 °C 34405.1 hPa Calm     58 % 0 mm 287.0 W/m2 CLR
08:47 -4.4 °C -9.3 °C 34405.1 hPa Calm     58 % 0 mm 299.0 W/m2 CLR
08:52 -4.2 °C -9.6 °C 34405.1 hPa Calm     55 % 0 mm 311.0 W/m2 CLR
08:57 -3.9 °C -9.6 °C 34405.1 hPa Calm     53 % 0 mm 327.0 W/m2 CLR
09:02 -3.7 °C -9.4 °C 34418.7 hPa Calm     53 % 0 mm 345.0 W/m2 CLR
09:07 -3.5 °C -9.2 °C 34418.7 hPa Calm     53 % 0 mm 359.0 W/m2 CLR
09:12 -3.2 °C -9.3 °C 34418.7 hPa Calm     51 % 0 mm 374.0 W/m2 CLR
09:17 -3 °C -9.3 °C 34418.7 hPa Calm     50 % 0 mm 387.0 W/m2 CLR
09:22 -2.9 °C -9.3 °C 34418.7 hPa Calm     49 % 0 mm 404.0 W/m2 CLR
09:27 -2.7 °C -9.4 °C 34418.7 hPa Calm     48 % 0 mm 420.0 W/m2 CLR
09:32 -2.6 °C -9.2 °C 34418.7 hPa Calm     48 % 0 mm 434.0 W/m2 CLR
09:37 -2.4 °C -9.2 °C 34418.7 hPa Calm     47 % 0 mm 448.0 W/m2 CLR
09:42 -2.3 °C -9.1 °C 34418.7 hPa Calm     47 % 0 mm 462.0 W/m2 CLR
09:48 -2.2 °C -9.3 °C 34418.7 hPa Calm     46 % 0 mm 482.0 W/m2 CLR
09:53 -2 °C -9.1 °C 34418.7 hPa Calm     46 % 0 mm 497.0 W/m2 CLR
09:58 -1.8 °C -9.1 °C 34418.7 hPa Calm     45 % 0 mm 512.0 W/m2 CLR
10:03 -1.6 °C -8.9 °C 34418.7 hPa Calm     45 % 0 mm 527.0 W/m2 CLR
10:08 -1.4 °C -8.9 °C 34418.7 hPa Calm     44 % 0 mm 543.0 W/m2 CLR
10:13 -1.3 °C -9.1 °C 34418.7 hPa Calm     43 % 0 mm 557.0 W/m2 CLR
10:18 -1.2 °C -8.7 °C 34405.1 hPa Calm     44 % 0 mm 570.0 W/m2 CLR
10:23 -0.9 °C -8.7 °C 34405.1 hPa Calm     43 % 0 mm 584.0 W/m2 CLR
10:28 -0.8 °C -8.8 °C 34405.1 hPa Calm     42 % 0 mm 599.0 W/m2 CLR
10:33 -0.7 °C -8.7 °C 34405.1 hPa Calm     42 % 0 mm 610.0 W/m2 CLR
10:38 -0.7 °C -8.7 °C 34405.1 hPa ENE 11.9 km/h 11.9 km/h 42 % 0 mm 624.0 W/m2 CLR
10:43 -0.7 °C -8.7 °C 34405.1 hPa ENE 11.9 km/h 11.9 km/h 42 % 0 mm 636.0 W/m2 CLR
10:48 -0.5 °C -8.5 °C 34405.1 hPa NE 11.9 km/h 11.9 km/h 42 % 0 mm 650.0 W/m2 CLR
10:53 -0.3 °C -8.6 °C 34405.1 hPa ENE 17.9 km/h 17.9 km/h 41 % 0 mm 663.0 W/m2 CLR
10:58 -0.2 °C -8.5 °C 34405.1 hPa ENE 9 km/h   41 % 0 mm 675.0 W/m2 CLR
11:03 -0.2 °C -8.4 °C 34405.1 hPa ENE 9 km/h 9 km/h 41 % 0 mm 687.0 W/m2 CLR
11:08 -0.1 °C -8.3 °C 34405.1 hPa NE 9 km/h 9 km/h 41 % 0 mm 700.0 W/m2 CLR
11:13 0.1 °C -8.7 °C 34405.1 hPa NE 5.1 km/h 5.1 km/h 39 % 0 mm 712.0 W/m2 CLR
11:18 0.1 °C -8.6 °C 34405.1 hPa ENE 9 km/h 9 km/h 39 % 0 mm 724.0 W/m2 CLR
11:23 0.2 °C -8.8 °C 34405.1 hPa NE 6 km/h 6 km/h 38 % 0 mm 729.0 W/m2 CLR
11:28 0.3 °C -8.7 °C 34405.1 hPa Calm     38 % 0 mm 745.0 W/m2 CLR
11:33 0.4 °C -9 °C 34405.1 hPa ENE 9 km/h 9 km/h 36 % 0 mm 758.0 W/m2 CLR
11:38 0.6 °C -9.1 °C 34405.1 hPa Calm     35 % 0 mm 766.0 W/m2 CLR
11:43 0.7 °C -9.1 °C 34405.1 hPa SSE 3.1 km/h 3.1 km/h 35 % 0 mm 775.0 W/m2 CLR
11:48 0.7 °C -9 °C 34405.1 hPa Calm     35 % 0 mm 780.0 W/m2 CLR
11:53 0.9 °C -8.8 °C 34405.1 hPa ENE 11.9 km/h 11.9 km/h 35 % 0 mm 793.0 W/m2 CLR
11:56 0.8 °C -9 °C 34405.1 hPa ESE 6 km/h   35 % 0 mm 800.0 W/m2 CLR
12:01 0.8 °C -8.7 °C 34405.1 hPa NNE 6 km/h 6 km/h 36 % 0 mm 809.0 W/m2 CLR
12:06 0.9 °C -8.6 °C 34405.1 hPa ENE 17.9 km/h 17.9 km/h 36 % 0 mm 814.0 W/m2 CLR
12:11 1 °C -9 °C 34405.1 hPa NE 3.1 km/h   34 % 0 mm 823.0 W/m2 CLR
12:16 1.1 °C -8.7 °C 34405.1 hPa ENE 6 km/h 6 km/h 35 % 0 mm 833.0 W/m2 CLR
12:21 1.3 °C -8.8 °C 34405.1 hPa ENE 11.9 km/h 11.9 km/h 34 % 0 mm 837.0 W/m2 CLR
12:26 1.3 °C -8.8 °C 34395 hPa Calm     34 % 0 mm 847.0 W/m2 CLR
12:31 1.3 °C -8.8 °C 34405.1 hPa ENE 12.9 km/h 12.9 km/h 34 % 0 mm 856.0 W/m2 CLR
12:36 1.3 °C -9 °C 34405.1 hPa Calm     33 % 0 mm 861.0 W/m2 CLR
12:41 1.4 °C -8.9 °C 34395 hPa ENE 6 km/h 6 km/h 33 % 0 mm 868.0 W/m2 CLR
12:46 1.3 °C -9 °C 34395 hPa East 7.7 km/h 7.7 km/h 33 % 0 mm 870.0 W/m2 CLR
12:48 1.3 °C -9 °C 34395 hPa ENE 11.9 km/h 11.9 km/h 33 % 0 mm 877.0 W/m2 CLR
12:53 1.3 °C -9 °C 34395 hPa NE 20.8 km/h 20.8 km/h 33 % 0 mm 881.0 W/m2 CLR
12:58 1.5 °C -9.1 °C 34395 hPa ENE 6 km/h   32 % 0 mm 886.0 W/m2 CLR
13:03 1.6 °C -9 °C 34395 hPa North 9 km/h 9 km/h 32 % 0 mm 888.0 W/m2 CLR
13:08 1.7 °C -8.9 °C 34395 hPa ENE 9 km/h 9 km/h 32 % 0 mm 895.0 W/m2 CLR
13:13 1.6 °C -9.1 °C 34384.8 hPa Calm     32 % 0 mm 902.0 W/m2 CLR
13:18 1.8 °C -8.8 °C 34384.8 hPa ENE 26.9 km/h 26.9 km/h 32 % 0 mm 893.0 W/m2 CLR
13:23 1.8 °C -8.8 °C 34384.8 hPa ENE 23.8 km/h 23.8 km/h 32 % 0 mm 907.0 W/m2 CLR
13:28 2.1 °C -9.2 °C 34384.8 hPa North 11.9 km/h 11.9 km/h 30 % 0 mm 909.0 W/m2 CLR
13:33 2.1 °C -9.4 °C 34384.8 hPa East 20.9 km/h 20.9 km/h 29 % 0 mm 911.0 W/m2 CLR
13:38 2.2 °C -9.1 °C 34384.8 hPa Calm   0.3 km/h 30 % 0 mm 912.0 W/m2 CLR
13:40 2.2 °C -9.1 °C 34384.8 hPa NNE 3.1 km/h 3.1 km/h 30 % 0 mm 912.0 W/m2 CLR
13:45 2.3 °C -9.6 °C 34384.8 hPa East 23.3 km/h 23.3 km/h 28 % 0 mm 916.0 W/m2 CLR
13:50 2.3 °C -9.6 °C 34371.3 hPa NE 3.1 km/h   28 % 0 mm 918.0 W/m2 CLR
13:55 2.3 °C -9.9 °C 34371.3 hPa East 26.9 km/h 26.9 km/h 27 % 0 mm 919.0 W/m2 CLR
14:00 2.3 °C -9.9 °C 34371.3 hPa SSE 23.8 km/h 23.8 km/h 27 % 0 mm 921.0 W/m2 CLR
14:05 2.2 °C -9.9 °C 34371.3 hPa East 3.1 km/h 3.1 km/h 27 % 0 mm 923.0 W/m2 CLR
14:10 2.3 °C -10.2 °C 34371.3 hPa ESE 29.8 km/h 29.8 km/h 26 % 0 mm 921.0 W/m2 CLR
14:15 2.3 °C -10.2 °C 34371.3 hPa East 12.9 km/h 12.9 km/h 26 % 0 mm 923.0 W/m2 CLR
14:20 2.4 °C -9.8 °C 34371.3 hPa SSE 9 km/h   27 % 0 mm 919.0 W/m2 CLR
14:25 2.7 °C -9.8 °C 34371.3 hPa East 23.3 km/h 23.3 km/h 26 % 0 mm 919.0 W/m2 CLR
14:30 2.6 °C -10.3 °C 34371.3 hPa SSE 17.9 km/h 17.9 km/h 25 % 0 mm 918.0 W/m2 CLR
14:35 2.4 °C -10.4 °C 34371.3 hPa ESE 29.8 km/h 29.8 km/h 25 % 0 mm 916.0 W/m2 CLR
14:40 2.4 °C -10.4 °C 34371.3 hPa ESE 29.8 km/h 29.8 km/h 25 % 0 mm 905.0 W/m2 CLR
14:45 2.4 °C -10.4 °C 34371.3 hPa SSE 20.8 km/h 20.8 km/h 25 % 0 mm 893.0 W/m2 CLR
14:50 2.4 °C -10.8 °C 34371.3 hPa East 17.9 km/h   24 % 0 mm 891.0 W/m2 CLR
14:55 2.4 °C -10.8 °C 34361.1 hPa ESE 20.9 km/h 20.9 km/h 24 % 0 mm 896.0 W/m2 CLR
15:00 2.4 °C -10.8 °C 34361.1 hPa East 20.8 km/h 20.8 km/h 24 % 0 mm 879.0 W/m2 CLR
15:05 2.6 °C -10.7 °C 34361.1 hPa East 23.8 km/h 23.8 km/h 24 % 0 mm 879.0 W/m2 CLR
15:10 2.6 °C -10.7 °C 34361.1 hPa SSE 20.9 km/h 20.9 km/h 24 % 0 mm 872.0 W/m2 CLR
15:15 2.6 °C -10.7 °C 34361.1 hPa East 18.2 km/h 18.2 km/h 24 % 0 mm 881.0 W/m2 CLR
15:20 2.6 °C -10.7 °C 34361.1 hPa ESE 10.3 km/h 10.3 km/h 24 % 0 mm 875.0 W/m2 CLR
15:25 2.7 °C -10.6 °C 34361.1 hPa South 15 km/h 15 km/h 24 % 0 mm 828.0 W/m2 CLR
15:30 2.7 °C -10.6 °C 34347.6 hPa ESE 18.2 km/h 21.2 km/h 24 % 0 mm 812.0 W/m2 CLR
15:35 2.6 °C -10.7 °C 34347.6 hPa Calm     24 % 0 mm 846.0 W/m2 CLR
15:36 2.7 °C -10.6 °C 34347.6 hPa Calm     24 % 0 mm 849.0 W/m2 CLR
15:41 2.8 °C -10.4 °C 34347.6 hPa East 26.9 km/h 26.9 km/h 24 % 0 mm 851.0 W/m2 CLR
15:46 2.9 °C -10.4 °C 34347.6 hPa South 17.9 km/h 17.9 km/h 24 % 0 mm 860.0 W/m2 CLR
15:51 2.9 °C -10.4 °C 34347.6 hPa ESE 15 km/h 15 km/h 24 % 0 mm 849.0 W/m2 CLR
15:56 2.9 °C -10.8 °C 34337.4 hPa NE 17.9 km/h 17.9 km/h 23 % 0 mm 809.0 W/m2 CLR
16:01 2.9 °C -10.7 °C 34337.4 hPa ENE 23.8 km/h 23.8 km/h 23 % 0 mm 826.0 W/m2 CLR
16:06 2.9 °C -10.7 °C 34337.4 hPa NE 20.9 km/h 20.9 km/h 23 % 0 mm 826.0 W/m2 CLR
16:11 3.1 °C -10.6 °C 34337.4 hPa NNE 15 km/h 15 km/h 23 % 0 mm 810.0 W/m2 CLR
16:16 3.1 °C -10.9 °C 34337.4 hPa North 17.9 km/h 17.9 km/h 22 % 0 mm 807.0 W/m2 CLR
16:21 3.2 °C -10.9 °C 34337.4 hPa ENE 15 km/h   22 % 0 mm 789.0 W/m2 CLR
16:26 3.2 °C -10.9 °C 34337.4 hPa East 6 km/h   22 % 0 mm 773.0 W/m2 CLR
16:31 3.3 °C -10.4 °C 34337.4 hPa ENE 9 km/h 9 km/h 23 % 0 mm 751.0 W/m2 CLR
16:36 3.1 °C -10.9 °C 34337.4 hPa ENE 20.9 km/h 20.9 km/h 22 % 0 mm 735.0 W/m2 CLR
16:41 3.2 °C -10.6 °C 34337.4 hPa East 9 km/h 9 km/h 23 % 0 mm 717.0 W/m2 CLR
16:47 2.9 °C -10.7 °C 34337.4 hPa East 20.9 km/h 20.9 km/h 23 % 0 mm 691.0 W/m2 CLR
16:52 2.9 °C -10.4 °C 34337.4 hPa ESE 10.3 km/h 10.3 km/h 24 % 0 mm 689.0 W/m2 CLR
16:57 2.9 °C -10.4 °C 34337.4 hPa ESE 23.8 km/h 23.8 km/h 24 % 0 mm 682.0 W/m2 CLR
17:02 2.9 °C -10.4 °C 34337.4 hPa ENE 23.3 km/h 23.3 km/h 24 % 0 mm 640.0 W/m2 CLR
17:07 2.8 °C -10.4 °C 34327.3 hPa Calm     24 % 0 mm 631.0 W/m2 CLR
17:12 2.8 °C -10.1 °C 34327.3 hPa ESE 15 km/h 15 km/h 25 % 0 mm 712.0 W/m2 CLR
17:17 2.8 °C -10.2 °C 34327.3 hPa East 23.8 km/h 23.8 km/h 25 % 0 mm 670.0 W/m2 CLR
17:22 2.7 °C -10.2 °C 34327.3 hPa SE 32.8 km/h 32.8 km/h 25 % 0 mm 561.0 W/m2 CLR
17:27 2.6 °C -10 °C 34327.3 hPa East 35.7 km/h 35.7 km/h 26 % 0 mm 504.0 W/m2 CLR
17:32 2.4 °C -9.5 °C 34327.3 hPa SE 29.8 km/h 29.8 km/h 28 % 0 mm 533.0 W/m2 CLR
17:37 2.4 °C -9.8 °C 34327.3 hPa ESE 23.3 km/h 23.3 km/h 27 % 0 mm 615.0 W/m2 CLR
17:42 2.5 °C -9.7 °C 34327.3 hPa ESE 23.8 km/h 23.8 km/h 27 % 0 mm 548.0 W/m2 CLR
17:47 2.5 °C -9.7 °C 34327.3 hPa ESE 29.8 km/h 29.8 km/h 27 % 0 mm 591.0 W/m2 CLR
17:52 2.6 °C -9.4 °C 34327.3 hPa East 20.9 km/h 20.9 km/h 28 % 0 mm 561.0 W/m2 CLR
17:57 2.5 °C -9.7 °C 34327.3 hPa ESE 29.8 km/h 29.8 km/h 27 % 0 mm 457.0 W/m2 CLR
18:02 2.4 °C -10.2 °C 34327.3 hPa ESE 32.8 km/h 32.8 km/h 26 % 0 mm 401.0 W/m2 CLR
18:07 2.3 °C -9.9 °C 34327.3 hPa SE 29.8 km/h 29.8 km/h 27 % 0 mm 394.0 W/m2 CLR
18:12 2.3 °C -9.6 °C 34327.3 hPa ESE 25.9 km/h 25.9 km/h 28 % 0 mm 439.0 W/m2 CLR
18:17 2.3 °C -9.3 °C 34327.3 hPa SE 26.9 km/h 26.9 km/h 29 % 0 mm 487.0 W/m2 CLR
18:22 2.2 °C -9.9 °C 34327.3 hPa ESE 28.5 km/h 28.5 km/h 27 % 0 mm 446.0 W/m2 CLR
18:27 2.2 °C -9.7 °C 34327.3 hPa ESE 29.8 km/h 29.8 km/h 28 % 0 mm 390.0 W/m2 CLR
18:32 2.1 °C -10.1 °C 34327.3 hPa ESE 29.8 km/h 29.8 km/h 27 % 0 mm 359.0 W/m2 CLR
18:37 2.1 °C -10.1 °C 34327.3 hPa ESE 26.9 km/h 26.9 km/h 27 % 0 mm 422.0 W/m2 CLR
18:42 2.1 °C -10.4 °C 34327.3 hPa ESE 29.8 km/h 29.8 km/h 26 % 0 mm 494.0 W/m2 CLR
18:47 2.2 °C -9.9 °C 34327.3 hPa SE 35.7 km/h 35.7 km/h 27 % 0 mm 464.0 W/m2 CLR
18:52 2.2 °C -10.1 °C 34327.3 hPa South 26.9 km/h 26.9 km/h 27 % 0 mm 385.0 W/m2 CLR
18:57 2.2 °C -10.1 °C 34327.3 hPa SE 29.8 km/h 29.8 km/h 27 % 0 mm 341.0 W/m2 CLR
19:02 2.1 °C -10.1 °C 34327.3 hPa SE 32.8 km/h 32.8 km/h 27 % 0 mm 308.0 W/m2 CLR
19:03 2.1 °C -10.1 °C 34327.3 hPa SSE 29.8 km/h 29.8 km/h 27 % 0 mm 292.0 W/m2 CLR
19:08 2 °C -10.2 °C 34327.3 hPa ESE 31.1 km/h 31.1 km/h 27 % 0 mm 308.0 W/m2 CLR
19:14 1.9 °C -9.9 °C 34327.3 hPa ESE 28.5 km/h 28.5 km/h 28 % 0 mm 281.0 W/m2 CLR
19:19 1.8 °C -10 °C 34327.3 hPa ESE 29.8 km/h 29.8 km/h 28 % 0 mm 225.0 W/m2 CLR
19:24 1.7 °C -9.8 °C 34337.4 hPa ESE 29.8 km/h 29.8 km/h 29 % 0 mm 216.0 W/m2 CLR
19:29 1.7 °C -9.8 °C 34327.3 hPa ESE 23.8 km/h 23.8 km/h 29 % 0 mm 185.0 W/m2 CLR
19:34 1.7 °C -9.8 °C 34337.4 hPa ESE 29.8 km/h 29.8 km/h 29 % 0 mm 156.0 W/m2 CLR
19:39 1.6 °C -9.8 °C 34327.3 hPa ESE 15 km/h 15 km/h 29 % 0 mm 141.0 W/m2 CLR
19:44 1.6 °C -9.9 °C 34337.4 hPa SE 20.9 km/h 20.9 km/h 29 % 0 mm 141.0 W/m2 CLR
19:49 1.6 °C -9.9 °C 34337.4 hPa SE 26.9 km/h 26.9 km/h 29 % 0 mm 128.0 W/m2 CLR
19:54 1.6 °C -9.9 °C 34337.4 hPa South 36.2 km/h 36.2 km/h 29 % 0 mm 134.0 W/m2 CLR
19:59 1.4 °C -10 °C 34337.4 hPa South 32.8 km/h 32.8 km/h 29 % 0 mm 125.0 W/m2 CLR
20:04 1.3 °C -10.4 °C 34337.4 hPa South 29.8 km/h 29.8 km/h 28 % 0 mm 114.0 W/m2 CLR
20:09 1.3 °C -10.4 °C 34337.4 hPa South 29.8 km/h 29.8 km/h 28 % 0 mm 91.0 W/m2 CLR
20:14 1.2 °C -10.5 °C 34347.6 hPa South 26.9 km/h 26.9 km/h 28 % 0 mm 74.0 W/m2 CLR
20:19 1.1 °C -10.6 °C 34347.6 hPa SSE 31.1 km/h 31.1 km/h 28 % 0 mm 65.0 W/m2 FEW
20:24 1.1 °C -10.4 °C 34347.6 hPa South 23.8 km/h 23.8 km/h 29 % 0 mm 58.0 W/m2 FEW
20:29 1 °C -10.4 °C 34347.6 hPa SSE 28.5 km/h 28.5 km/h 29 % 0 mm 49.0 W/m2 SCT
20:34 0.9 °C -10.5 °C 34347.6 hPa South 20.9 km/h 20.9 km/h 29 % 0 mm 40.0 W/m2 SCT
20:39 0.8 °C -10.6 °C 34347.6 hPa SSE 11.9 km/h 11.9 km/h 29 % 0 mm 37.0 W/m2 BKN
20:44 0.7 °C -10.4 °C 34347.6 hPa South 23.8 km/h 23.8 km/h 30 % 0 mm 35.0 W/m2 BKN
20:50 0.7 °C -10.4 °C 34347.6 hPa SSE 15 km/h 15 km/h 30 % 0 mm 37.0 W/m2 BKN
20:55 0.6 °C -10.5 °C 34347.6 hPa SSE 11.9 km/h 11.9 km/h 30 % 0 mm 30.0 W/m2 BKN
21:00 0.5 °C -10.6 °C 34347.6 hPa South 20.9 km/h   30 % 0 mm 25.0 W/m2 BKN
21:05 0.4 °C -10.3 °C 34347.6 hPa SSE 17.9 km/h 17.9 km/h 31 % 0 mm 21.0 W/m2 BKN
21:10 0.3 °C -10.4 °C 34361.1 hPa SSE 15.6 km/h 15.6 km/h 31 % 0 mm 18.0 W/m2 BKN
21:15 0.3 °C -10.4 °C 34361.1 hPa Calm     31 % 0 mm 14.0 W/m2 BKN
21:20 0.2 °C -10.2 °C 34361.1 hPa SSE 11.9 km/h 11.9 km/h 32 % 0 mm 11.0 W/m2 BKN
21:30 0.1 °C -10.4 °C 34361.1 hPa SSE 9 km/h 10.9 km/h 32 % 0 mm 0.0 W/m2 OVC
21:35 -0.1 °C -10.2 °C 34361.1 hPa South 9 km/h 9 km/h 33 % 0 mm 0.0 W/m2 OVC
21:40 -0.1 °C -10.3 °C 34361.1 hPa South 9 km/h   33 % 0 mm 0.0 W/m2 OVC
21:45 -0.2 °C -10.3 °C 34361.1 hPa Calm     33 % 0 mm 0.0 W/m2 OVC
21:50 -0.3 °C -10.4 °C 34361.1 hPa Calm     33 % 0 mm 0.0 W/m2 CLR
21:55 -0.4 °C -10.2 °C 34361.1 hPa Calm     34 % 0 mm 0.0 W/m2 CLR
22:00 -0.4 °C -10.3 °C 34361.1 hPa Calm     34 % 0 mm 0.0 W/m2 CLR
22:05 -0.6 °C -10.4 °C 34371.3 hPa Calm     34 % 0 mm 0.0 W/m2 CLR
22:10 -0.7 °C -10.2 °C 34371.3 hPa Calm     35 % 0 mm 0.0 W/m2 CLR
22:15 -0.7 °C -10.5 °C 34371.3 hPa Calm     34 % 0 mm 0.0 W/m2 CLR
22:20 -0.8 °C -10.6 °C 34371.3 hPa Calm     34 % 0 mm 0.0 W/m2 CLR
22:25 -0.9 °C -10.4 °C 34371.3 hPa Calm     35 % 0 mm 0.0 W/m2 CLR
22:30 -0.9 °C -10.5 °C 34384.8 hPa Calm     35 % 0 mm 0.0 W/m2 CLR
22:35 -1 °C -10.3 °C 34384.8 hPa Calm     36 % 0 mm 0.0 W/m2 CLR
22:40 -1.2 °C -10.7 °C 34384.8 hPa Calm     35 % 0 mm 0.0 W/m2 CLR
22:45 -1.2 °C -10.4 °C 34384.8 hPa Calm     36 % 0 mm 0.0 W/m2 CLR
22:50 -1.3 °C -10.6 °C 34395 hPa Calm     36 % 0 mm 0.0 W/m2 CLR
22:55 -1.4 °C -10.7 °C 34395 hPa Calm     36 % 0 mm 0.0 W/m2 CLR
23:00 -1.5 °C -10.5 °C 34395 hPa Calm     37 % 0 mm 0.0 W/m2 CLR
23:05 -1.6 °C -10.4 °C 34395 hPa Calm     38 % 0 mm 0.0 W/m2 CLR
23:10 -1.8 °C -10.3 °C 34395 hPa Calm     39 % 0 mm 0.0 W/m2 CLR
23:15 -1.9 °C -10.2 °C 34395 hPa Calm     40 % 0 mm 0.0 W/m2 CLR
23:20 -2.1 °C -9.9 °C 34395 hPa Calm     42 % 0 mm 0.0 W/m2 CLR
23:30 -2.3 °C -9.8 °C 34395 hPa Calm     44 % 0 mm 0.0 W/m2 CLR
23:35 -2.4 °C -9.8 °C 34395 hPa Calm     44 % 0 mm 0.0 W/m2 CLR
23:40 -2.5 °C -9.9 °C 34395 hPa Calm     44 % 0 mm 0.0 W/m2 CLR
23:45 -2.6 °C -9.8 °C 34395 hPa Calm     45 % 0 mm 0.0 W/m2 CLR
23:50 -2.6 °C -9.6 °C 34395 hPa Calm     46 % 0 mm 0.0 W/m2 CLR
23:55 -2.8 °C -9.6 °C 34395 hPa Calm     47 % 0 mm 0.0 W/m2 CLR
Lo Temps de Massalio
Compliments of Weather Underground - 1.25 mb